[[{"header":{"parameterUnit":"m.s-1","parameterCategory":2,"la1":30.2992,"la2":30.254,"lo1":-89.0895,"lo2":-89.0443,"dy":0.0025,"dx":0.0025,"nx":19,"ny":19,"refTime":"2026-04-08T09:00:00:Z","depth":"0","parameterNumber":2,"parameterNumberName":"U-component_of_CURRENTS"},"data":[0,0,0,0.1994,0.1994,0.1943,0.1942,0.1869,0.1869,0,0,0,0,0,0,0,0,0,0,0,0.2007,0.2007,0.1994,0.1994,0.1943,0.1942,0.187,0.1869,0,0,0,0,0,0,0,0,0,0,0,0.2007,0.2007,0.2007,0.1994,0.1943,0.1942,0.187,0.1905,0,0,0,0,0,0,0,0,0,0,0.1953,0.1976,0.2007,0.2007,0.1994,0.1943,0.1942,0.1906,0.1902,0.1898,0,0.1902,0,0.1896,0.1866,0.1866,0,0,0,0.1971,0.1979,0.1969,0.2007,0.1993,0.1943,0.1959,0.1904,0.19,0.1893,0.1901,0.1898,0.1895,0.1866,0.1866,0.1866,0.1866,0,0,0.1974,0.199,0.1972,0.1967,0.1996,0.1961,0.1958,0.1901,0.1902,0.1901,0.1897,0.1894,0.1866,0.1865,0.1865,0.1866,0,0,0,0.1997,0.1992,0.1982,0.197,0.1968,0.196,0.1957,0.1904,0.1902,0.1896,0.1893,0.1865,0.1865,0.1865,0.1865,0.1896,0,0,0,0.1998,0.2007,0.1984,0.1992,0.197,0.1938,0.1961,0.1905,0.1899,0.1894,0.1865,0.1864,0.1865,0.1865,0.1894,0.189,0,0,0,0.2006,0.2008,0.2008,0.1993,0.1982,0.1939,0.1932,0.1904,0.1899,0.1866,0.1864,0.1864,0.1865,0.1893,0.1888,0.189,0,0,0,0.2015,0.201,0.2008,0.2002,0.1983,0.1962,0.1932,0.1908,0.1883,0.1865,0.1865,0.1865,0.1892,0.1887,0.1889,0.1833,0.1833,0,0,0.2009,0.201,0.2005,0.2002,0.2,0.1966,0.1956,0.1913,0.1894,0.1878,0.1877,0.1895,0.1888,0.1889,0.1879,0.1877,0,0,0,0.2002,0.2005,0.2002,0.2004,0.1989,0.1973,0.1942,0.1933,0.1915,0.1888,0.1902,0.1897,0.1897,0.1862,0.1861,0.1695,0.1869,0.1869,0.1869,0.2011,0.2009,0.2002,0.1999,0.1995,0.198,0.1965,0.195,0.1936,0.1944,0.1928,0.1956,0.1921,0.1919,0.175,0.1945,0.1945,0.1945,0.1945,0.1996,0.1973,0.1997,0.1987,0.1991,0.1988,0.1985,0.1982,0.1976,0.1964,0.1963,0.1904,0.192,0.1739,0.1947,0.1947,0.1946,0.1946,0.1946,0.1969,0.1952,0.1964,0.1962,0.1969,0.1978,0.1962,0.1975,0.1993,0.1993,0.194,0.1939,0.1772,0.1993,0.1993,0.1993,0.1993,0.1993,0.1993,0.1912,0.1922,0.1905,0.1924,0.1913,0.192,0.1937,0.1941,0.1952,0.1955,0.1955,0.1755,0.197,0.1959,0.1993,0.1993,0.1993,0.1993,0.1993,0.1836,0.186,0.1819,0.1807,0.1786,0.1735,0.1808,0.183,0.1864,0.187,0.1701,0.1933,0.191,0.191,0.1897,0.1913,0.1913,0.1913,0.1913,0.1788,0.1797,0.1718,0.1656,0.1621,0.1624,0.155,0.1601,0.1612,0.1564,0.1575,0.1532,0.1543,0.1495,0.1505,0.1482,0.1392,0.1391,0.1391,0.1744,0.1724,0.1634,0.1577,0.152,0.1482,0.1368,0.1291,0.1323,0.1353,0.1352,0.1374,0.1297,0.1328,0.1245,0.1271,0.1233,0,0]},{"header":{"parameterUnit":"m.s-1","parameterCategory":2,"la1":30.2992,"la2":30.254,"lo1":-89.0895,"lo2":-89.0443,"dy":0.0025,"dx":0.0025,"nx":19,"ny":19,"refTime":"2026-04-08T09:00:00:Z","depth":"0","parameterNumber":3,"parameterNumberName":"V-component_of_CURRENTS"},"data":[0,0,0,-0.0345,-0.0341,-0.0093,-0.0092,0.005,0.005,0,0,0,0,0,0,0,0,0,0,0,-0.0449,-0.0448,-0.0346,-0.034,-0.0093,-0.0092,0.005,0.005,0,0,0,0,0,0,0,0,0,0,0,-0.0449,-0.0448,-0.0447,-0.0339,-0.0093,-0.0092,0.005,-0.009,0,0,0,0,0,0,0,0,0,0,-0.0306,-0.0387,-0.0449,-0.0447,-0.0338,-0.0094,-0.0092,-0.0094,-0.0081,-0.0117,0,-0.0095,0,-0.0023,0.0054,0.0055,0,0,0,-0.0323,-0.0398,-0.0328,-0.0447,-0.0336,-0.0094,-0.02,-0.0085,-0.0071,-0.0101,-0.0092,-0.0085,-0.002,0.0055,0.0055,0.0125,0.0125,0,0,-0.0337,-0.0404,-0.0338,-0.0319,-0.0297,-0.0208,-0.0192,-0.0074,-0.0077,-0.0092,-0.008,-0.0018,0.0055,0.0056,0.0124,0.0125,0,0,0,-0.0388,-0.0414,-0.0342,-0.0328,-0.027,-0.0201,-0.0183,-0.0082,-0.0057,-0.0078,-0.0016,0.0056,0.0056,0.0124,0.0124,0.0175,0,0,0,-0.0395,-0.0443,-0.035,-0.0386,-0.0272,-0.0149,-0.0194,-0.0065,-0.0048,-0.0017,0.0056,0.0057,0.0124,0.0124,0.0173,0.0209,0,0,0,-0.0456,-0.0449,-0.0427,-0.0391,-0.0287,-0.0148,-0.0115,-0.0059,-0.0013,0.0055,0.0057,0.0123,0.0124,0.0171,0.0205,0.0237,0,0,0,-0.0522,-0.0491,-0.043,-0.0371,-0.029,-0.0119,-0.0114,0.0004,0.0066,0.0056,0.0124,0.0124,0.017,0.0203,0.0235,0.0307,0.0324,0,0,-0.0515,-0.0493,-0.0452,-0.0389,-0.0235,-0.0151,0.0,0.0069,0.0058,0.0074,0.0078,0.0173,0.0205,0.0237,0.0351,0.0366,0,0,0,-0.0468,-0.0431,-0.0377,-0.0273,-0.0149,-0.0,0.0089,0.0107,0.0148,0.0096,0.0174,0.0193,0.0211,0.025,0.0263,0.0249,0.0128,0.0128,0.0128,-0.0511,-0.0416,-0.0309,-0.0167,-0.0064,0.0104,0.0187,0.0222,0.0197,0.0207,0.0235,0.0296,0.0337,0.0348,0.0333,0.0227,0.0227,0.0227,0.0227,-0.0437,-0.0341,-0.0235,-0.0099,0.0045,0.0172,0.0291,0.0295,0.0331,0.0288,0.0302,0.0302,0.0365,0.0343,0.023,0.023,0.0229,0.0229,0.0229,-0.0409,-0.0343,-0.0272,-0.0068,0.0094,0.0245,0.0386,0.0412,0.0382,0.0404,0.0431,0.0431,0.0412,0.0403,0.0403,0.0403,0.0403,0.0404,0.0404,-0.0396,-0.0313,-0.0173,-0.0003,0.0125,0.0298,0.0445,0.0494,0.0529,0.0507,0.0507,0.0443,0.0349,0.0342,0.0409,0.0408,0.0407,0.0407,0.0406,-0.0278,-0.0258,-0.0056,0.007,0.0325,0.0478,0.0574,0.0679,0.0689,0.0709,0.0612,0.0558,0.0551,0.0541,0.0538,0.0652,0.0652,0.0652,0.0652,-0.0199,-0.0175,0.0095,0.0284,0.0473,0.0585,0.0746,0.0814,0.0789,0.0758,0.0704,0.0674,0.0665,0.0661,0.0648,0.0646,0.0784,0.0784,0.0784,-0.0068,-0.001,0.0191,0.0347,0.0545,0.0682,0.0812,0.0883,0.0839,0.0783,0.0672,0.0667,0.0612,0.0598,0.0578,0.0561,0.0551,0,0]}],[{"header":{"parameterUnit":"m.s-1","parameterCategory":2,"la1":30.2992,"la2":30.254,"lo1":-89.0895,"lo2":-89.0443,"dy":0.0025,"dx":0.0025,"nx":19,"ny":19,"refTime":"2026-04-08T09:00:00:Z","depth":"2","parameterNumber":2,"parameterNumberName":"U-component_of_CURRENTS"},"data":[0,0,0,0.191,0.1911,0.1936,0.1936,0.1919,0.1918,0,0,0,0,0,0,0,0,0,0,0,0.1918,0.1919,0.191,0.1911,0.1936,0.1936,0.1919,0.1918,0,0,0,0,0,0,0,0,0,0,0,0.1918,0.1918,0.1919,0.1911,0.1936,0.1936,0.1919,0.1913,0,0,0,0,0,0,0,0,0,0,0.1895,0.1911,0.1918,0.1919,0.1911,0.1936,0.1936,0.1913,0.1913,0.1892,0,0.1909,0,0.1903,0.1916,0.1915,0,0,0,0.1915,0.1911,0.1911,0.1919,0.1911,0.1936,0.1926,0.1914,0.1914,0.1891,0.1908,0.1908,0.1903,0.1915,0.1915,0.1917,0.1917,0,0,0.1913,0.1924,0.1912,0.1912,0.1933,0.1925,0.1926,0.1914,0.1923,0.1908,0.1907,0.1902,0.1915,0.1915,0.1917,0.1917,0,0,0,0.1907,0.1923,0.1925,0.1913,0.1916,0.1926,0.1927,0.1924,0.1924,0.1907,0.1902,0.1915,0.1914,0.1916,0.1917,0.1946,0,0,0,0.1906,0.1919,0.1925,0.1931,0.1917,0.1927,0.1938,0.1925,0.1923,0.1902,0.1915,0.1914,0.1916,0.1916,0.1944,0.1941,0,0,0,0.1914,0.1919,0.1926,0.1932,0.1939,0.1927,0.1927,0.1925,0.1919,0.1915,0.1914,0.1916,0.1916,0.1943,0.1939,0.194,0,0,0,0.1918,0.1924,0.1927,0.1946,0.1938,0.1951,0.1927,0.1932,0.1932,0.1915,0.1916,0.1917,0.1943,0.1938,0.1939,0.1876,0.1875,0,0,0.192,0.1926,0.1938,0.194,0.1954,0.1947,0.1964,0.195,0.1936,0.1916,0.1916,0.1945,0.1939,0.194,0.1919,0.1917,0,0,0,0.1934,0.1948,0.1955,0.1971,0.1974,0.1981,0.1974,0.1968,0.1964,0.1938,0.1952,0.1947,0.1947,0.1907,0.1906,0.192,0.192,0.192,0.192,0.1937,0.1951,0.197,0.1992,0.2004,0.2002,0.2008,0.1998,0.1985,0.1992,0.1977,0.2004,0.1964,0.1961,0.1993,0.1993,0.1993,0.1993,0.1993,0.1945,0.1948,0.1985,0.2013,0.2023,0.2038,0.2033,0.2028,0.2022,0.2012,0.2011,0.1948,0.1961,0.1996,0.1995,0.1995,0.1995,0.1994,0.1994,0.1943,0.1935,0.1986,0.2016,0.2028,0.2039,0.2013,0.2021,0.204,0.204,0.1982,0.1981,0.2005,0.204,0.204,0.204,0.204,0.204,0.204,0.1893,0.1934,0.1948,0.1997,0.199,0.199,0.1989,0.199,0.1995,0.1996,0.1995,0.2019,0.2018,0.2007,0.204,0.204,0.204,0.204,0.204,0.1875,0.1886,0.1873,0.188,0.1859,0.1795,0.1857,0.1871,0.1906,0.1908,0.1968,0.197,0.1947,0.1947,0.1934,0.1946,0.1946,0.1946,0.1946,0.1839,0.1851,0.1772,0.1718,0.1684,0.1675,0.1588,0.1598,0.171,0.1739,0.1748,0.172,0.1729,0.1691,0.1698,0.1679,0.1624,0.1623,0.1623,0.1834,0.1781,0.1703,0.1634,0.1575,0.1529,0.1395,0.1268,0.1384,0.1606,0.1654,0.1932,0.1914,0.1919,0.1881,0.1884,0.1861,0,0]},{"header":{"parameterUnit":"m.s-1","parameterCategory":2,"la1":30.2992,"la2":30.254,"lo1":-89.0895,"lo2":-89.0443,"dy":0.0025,"dx":0.0025,"nx":19,"ny":19,"refTime":"2026-04-08T09:00:00:Z","depth":"2","parameterNumber":3,"parameterNumberName":"V-component_of_CURRENTS"},"data":[0,0,0,0.0271,0.0269,0.0125,0.0125,0.0092,0.0092,0,0,0,0,0,0,0,0,0,0,0,0.0323,0.0323,0.0272,0.0269,0.0126,0.0125,0.0092,0.0092,0,0,0,0,0,0,0,0,0,0,0,0.0323,0.0323,0.0322,0.0269,0.0126,0.0124,0.0092,0.0156,0,0,0,0,0,0,0,0,0,0,0.0275,0.0292,0.0323,0.0322,0.0268,0.0126,0.0124,0.0158,0.0153,0.0208,0,0.0198,0,0.0159,0.0096,0.0096,0,0,0,0.0244,0.0296,0.0281,0.0322,0.0267,0.0126,0.0183,0.0153,0.0148,0.0202,0.0197,0.0195,0.0159,0.0096,0.0096,0.0161,0.0161,0,0,0.0252,0.0274,0.0284,0.0277,0.0251,0.0188,0.0179,0.0148,0.0143,0.0197,0.0193,0.0158,0.0096,0.0097,0.016,0.0161,0,0,0,0.0292,0.0279,0.0259,0.028,0.025,0.0184,0.0174,0.0142,0.0143,0.0192,0.0158,0.0097,0.0097,0.016,0.0161,0.0208,0,0,0,0.0295,0.0304,0.0264,0.0272,0.025,0.017,0.017,0.0144,0.0139,0.0158,0.0097,0.0098,0.016,0.016,0.0206,0.0241,0,0,0,0.0326,0.0306,0.0301,0.0274,0.0224,0.0169,0.0163,0.014,0.0121,0.0096,0.0098,0.0159,0.016,0.0205,0.0238,0.0267,0,0,0,0.0337,0.0342,0.0301,0.0287,0.0226,0.0187,0.0162,0.0126,0.0106,0.0097,0.016,0.016,0.0204,0.0235,0.0265,0.0328,0.0344,0,0,0.0356,0.0344,0.0335,0.0297,0.0284,0.0203,0.0196,0.0163,0.0139,0.0176,0.0175,0.0207,0.0237,0.0267,0.0371,0.0385,0,0,0,0.0349,0.0352,0.0341,0.0312,0.0272,0.0241,0.0185,0.0188,0.0184,0.0135,0.0209,0.0227,0.0243,0.0277,0.0288,0.0164,0.0164,0.0164,0.0164,0.0422,0.0383,0.0377,0.0333,0.0299,0.0273,0.0265,0.0258,0.0232,0.024,0.0266,0.0324,0.036,0.037,0.0259,0.0259,0.0259,0.0259,0.0259,0.0462,0.0446,0.0398,0.0364,0.0334,0.0305,0.0334,0.0331,0.0359,0.0317,0.033,0.0327,0.0386,0.0263,0.0263,0.0262,0.0262,0.0261,0.0261,0.0495,0.0483,0.0438,0.0381,0.036,0.0337,0.0422,0.0439,0.0407,0.0428,0.0449,0.0449,0.0358,0.0426,0.0426,0.0426,0.0426,0.0427,0.0427,0.0534,0.0502,0.0449,0.0402,0.0375,0.0409,0.0475,0.0518,0.0544,0.0521,0.0521,0.038,0.0375,0.0368,0.0431,0.0431,0.043,0.043,0.0429,0.0531,0.0487,0.046,0.0427,0.0434,0.0525,0.0594,0.0686,0.0695,0.0711,0.0571,0.0566,0.0559,0.055,0.0547,0.0653,0.0653,0.0653,0.0653,0.05,0.0489,0.0447,0.0461,0.0527,0.0596,0.0723,0.0752,0.0732,0.0682,0.068,0.0648,0.064,0.0633,0.0622,0.0618,0.0743,0.0743,0.0743,0.0445,0.0465,0.0441,0.0473,0.0562,0.0675,0.0753,0.0727,0.0684,0.0741,0.0633,0.0671,0.0619,0.0608,0.0589,0.0574,0.0565,0,0]}],[{"header":{"parameterUnit":"m.s-1","parameterCategory":2,"la1":30.2992,"la2":30.254,"lo1":-89.0895,"lo2":-89.0443,"dy":0.0025,"dx":0.0025,"nx":19,"ny":19,"refTime":"2026-04-08T09:00:00:Z","depth":"4","parameterNumber":2,"parameterNumberName":"U-component_of_CURRENTS"},"data":[0,0,0,0.1151,0.1154,0.1274,0.1275,0.1415,0.1416,0,0,0,0,0,0,0,0,0,0,0,0.1115,0.1116,0.1151,0.1154,0.1274,0.1275,0.1415,0.1416,0,0,0,0,0,0,0,0,0,0,0,0.1114,0.1115,0.1117,0.1154,0.1274,0.1275,0.1415,0.1328,0,0,0,0,0,0,0,0,0,0,0.1212,0.1179,0.1115,0.1117,0.1155,0.1274,0.1275,0.1324,0.1333,0.1356,0,0.1382,0,0.14,0.1425,0.1426,0,0,0,0.1156,0.1171,0.1204,0.1117,0.1156,0.1274,0.1221,0.1329,0.134,0.1368,0.1384,0.1389,0.1402,0.1426,0.1427,0.1555,0.1555,0,0,0.1149,0.1136,0.1197,0.1211,0.1197,0.1217,0.1224,0.1336,0.135,0.1384,0.1392,0.1405,0.1427,0.1428,0.1554,0.1555,0,0,0,0.1129,0.1131,0.1162,0.1205,0.1227,0.122,0.1229,0.1345,0.1356,0.1394,0.1406,0.1428,0.1429,0.1554,0.1555,0.1587,0,0,0,0.1125,0.1119,0.1159,0.1152,0.1225,0.1289,0.1236,0.1349,0.1362,0.1406,0.1428,0.1431,0.1553,0.1554,0.1585,0.1584,0,0,0,0.1107,0.1117,0.1134,0.1151,0.1202,0.1288,0.1306,0.1352,0.1369,0.1426,0.1431,0.1553,0.1554,0.1584,0.1581,0.1598,0,0,0,0.1085,0.1107,0.1134,0.1168,0.1201,0.1271,0.1305,0.1371,0.142,0.1428,0.1553,0.1554,0.1583,0.158,0.1597,0.1392,0,0,0,0.1093,0.1108,0.1127,0.1153,0.1206,0.1254,0.1331,0.1411,0.1442,0.1515,0.1519,0.1586,0.1581,0.1598,0.1451,0,0,0,0,0.1116,0.1128,0.115,0.1192,0.1248,0.1319,0.1393,0.1439,0.1529,0.1476,0.1597,0.1592,0.1602,0.1479,0.1559,0.1559,0.1559,0.1559,0.1559,0.1097,0.1129,0.1164,0.1217,0.1272,0.1376,0.1442,0.1519,0.1551,0.1599,0.1628,0.1672,0.1545,0.1646,0.1646,0.1646,0.1646,0.1646,0.1646,0.1095,0.111,0.1172,0.122,0.1305,0.1386,0.1512,0.1562,0.1662,0.1668,0.1677,0.1532,0.165,0.1649,0.1649,0.1648,0.1648,0.1648,0.1648,0.1068,0.108,0.1126,0.1204,0.1301,0.1411,0.1502,0.1608,0.1677,0.1711,0.1581,0.1691,0.1678,0.1725,0.1725,0.1726,0.1726,0.1726,0.1726,0.1018,0.1062,0.1104,0.1191,0.1254,0.136,0.1512,0.156,0.1649,0.1585,0.1723,0.1699,0.1696,0.1682,0.1727,0.1727,0.1727,0.1727,0.1726,0.0974,0.1008,0.1063,0.1119,0.1235,0.1286,0.1435,0.1458,0.1492,0.1465,0.1514,0.1525,0.1489,0.1491,0.1469,0.1452,0.145,0.1447,0,0.0939,0.0958,0.1033,0.1097,0.1149,0.1244,0.1226,0.1287,0.1352,0.131,0.1514,0.1571,0.1577,0.1539,0.1537,0.151,0,0,0,0.0911,0.0946,0.0984,0.1059,0.1106,0.1129,0.1215,0.1186,0.1338,0.1288,0.1385,0.1401,0.1596,0.1731,0.1701,0.1698,0.1673,0,0]},{"header":{"parameterUnit":"m.s-1","parameterCategory":2,"la1":30.2992,"la2":30.254,"lo1":-89.0895,"lo2":-89.0443,"dy":0.0025,"dx":0.0025,"nx":19,"ny":19,"refTime":"2026-04-08T09:00:00:Z","depth":"4","parameterNumber":3,"parameterNumberName":"V-component_of_CURRENTS"},"data":[0,0,0,0.0347,0.0347,0.0315,0.0315,0.0281,0.0281,0,0,0,0,0,0,0,0,0,0,0,0.0364,0.0364,0.0347,0.0347,0.0315,0.0315,0.0281,0.0281,0,0,0,0,0,0,0,0,0,0,0,0.0364,0.0364,0.0364,0.0346,0.0315,0.0315,0.0281,0.0302,0,0,0,0,0,0,0,0,0,0,0.0331,0.0345,0.0364,0.0364,0.0346,0.0315,0.0315,0.0303,0.0301,0.03,0,0.0304,0,0.0293,0.028,0.028,0,0,0,0.0339,0.0347,0.0342,0.0364,0.0346,0.0315,0.0327,0.0301,0.0299,0.0297,0.0304,0.0302,0.0292,0.028,0.0279,0.0283,0.0283,0,0,0.0341,0.0352,0.0344,0.0341,0.035,0.0328,0.0326,0.03,0.0301,0.0304,0.0301,0.0292,0.0279,0.0279,0.0283,0.0283,0,0,0,0.0351,0.0353,0.0348,0.0342,0.0337,0.0327,0.0325,0.0302,0.0302,0.0301,0.0292,0.0279,0.0279,0.0283,0.0283,0.0319,0,0,0,0.0352,0.0359,0.0349,0.0354,0.0337,0.0317,0.0328,0.0304,0.03,0.0292,0.0279,0.0279,0.0282,0.0283,0.0318,0.0342,0,0,0,0.0363,0.036,0.0361,0.0355,0.0344,0.0317,0.0315,0.0302,0.0295,0.028,0.0279,0.0282,0.0283,0.0317,0.034,0.0351,0,0,0,0.0367,0.0381,0.0361,0.0375,0.0344,0.0343,0.0315,0.0307,0.0298,0.0279,0.0282,0.0283,0.0316,0.0338,0.0349,0.0329,0,0,0,0.0388,0.0384,0.0392,0.0374,0.0388,0.0346,0.0352,0.0327,0.0304,0.029,0.029,0.0318,0.0339,0.035,0.0356,0,0,0,0,0.0401,0.0412,0.0412,0.0414,0.0401,0.0388,0.0357,0.0343,0.0326,0.0302,0.0318,0.033,0.0335,0.0319,0.0285,0.0285,0.0285,0.0285,0.0285,0.0443,0.0438,0.0456,0.045,0.0444,0.0417,0.0405,0.0379,0.0354,0.0353,0.0359,0.0392,0.0376,0.0352,0.0353,0.0353,0.0353,0.0353,0.0353,0.0477,0.0483,0.0484,0.0499,0.0485,0.0483,0.0448,0.0429,0.0417,0.0391,0.0394,0.0358,0.0357,0.0356,0.0355,0.0355,0.0355,0.0355,0.0354,0.0496,0.0496,0.0512,0.0525,0.0535,0.0514,0.0516,0.049,0.0457,0.0461,0.0432,0.0417,0.0414,0.0459,0.0459,0.0459,0.0459,0.046,0.046,0.0495,0.0511,0.0523,0.0544,0.055,0.056,0.0553,0.0547,0.0517,0.0478,0.0474,0.0428,0.0424,0.042,0.0462,0.0462,0.0461,0.0461,0.0461,0.0493,0.05,0.0508,0.052,0.0546,0.0559,0.0572,0.0563,0.0555,0.0531,0.0478,0.0476,0.0461,0.0456,0.0453,0.0506,0.0506,0.0506,0,0.0481,0.0489,0.0478,0.0484,0.0512,0.0543,0.0548,0.0557,0.0525,0.0504,0.0541,0.048,0.0478,0.046,0.0456,0.0451,0,0,0,0.0467,0.0459,0.0441,0.0454,0.0483,0.0516,0.0548,0.0537,0.0527,0.0534,0.0503,0.0504,0.051,0.047,0.0442,0.0438,0.043,0,0]}]]